Regional Weather Roundup
Issued by NWS

Home | Current Version | Previous Version | Text Only | Print | Product List | Glossary Off
Versions: 1 2 3 4 5 6 7 8 9 10 11 12 13 14 15 16 17 18 19 20 21 22 23 24 25 26 27 28 29 30 31 32 33 34 35 36 37 38 39 40 41 42 43 44 45 46 47 48 49 50

000
ASUS43 KLMK 181602
RWRKY
KENTUCKY REGIONAL WEATHER ROUNDUP
NATIONAL WEATHER SERVICE LOUISVILLE KY
1100 AM EST WED JAN 18 2017

NOTE "FAIR" INDICATES FEW OR NO CLOUDS BELOW 12,000 FEET
WITH NO SIGNIFICANT WEATHER AND/OR OBSTRUCTIONS TO VISIBILITY.

KYZ001>023-026-027-061>063-070>075-181700-
WESTERN AND SOUTH CENTRAL KENTUCKY

CITY           SKY/WX    TMP DP  RH WIND       PRES   REMARKS
PADUCAH        CLOUDY    43  37  79 NE3       30.26R
HENDERSON      CLOUDY    41  34  75 NW3       30.27S
OWENSBORO      NOT AVBL
HOPKINSVILLE   CLOUDY    44  39  83 CALM      30.25S
BOWLING GREEN  CLOUDY    45  38  76 N5        30.26R
GLASGOW        NOT AVBL
$$

KYZ024-025-028>034-038-045-046-053-181700-
NORTH CENTRAL KENTUCKY

CITY           SKY/WX    TMP DP  RH WIND       PRES   REMARKS
LOUISVILLE/SDF CLOUDY    43  36  76 W8        30.24S
LOUISVILLE/LOU CLOUDY    43  37  79 W7        30.25S
FORT KNOX      CLOUDY    41  35  79 SW6       30.23R
$$

KYZ035>037-039>044-047>052-055>060-089>105-181700-
NORTHEAST KENTUCKY

CITY           SKY/WX    TMP DP  RH WIND       PRES   REMARKS
LEXINGTON      CLOUDY    42  37  82 NW5       30.23R
COVINGTON      CLOUDY    38  35  89 W9        30.21R WCI  31
FRANKFORT        N/A     42  39  89 MISG      30.23R
$$

KYZ054-064>069-076>088-106>120-181700-
SOUTHEAST KENTUCKY

CITY           SKY/WX    TMP DP  RH WIND       PRES   REMARKS
JACKSON        CLOUDY    43  37  79 W7        30.21R
LONDON         CLOUDY    44  35  70 W8        30.24R
SOMERSET       NOT AVBL
MIDDLESBORO    CLOUDY    48  41  75 NW7       30.23S
MONTICELLO     CLOUDY    45  37  73 W6        30.27R
$$




USA.gov is the U.S. government's official web portal to all federal, state and local government web resources and services.